STARLINK-4045 (53152 NORAD) Tracking and Keplerian Element Data

This shows tracking and keplerian element data for the satellite.

Feedback or suggestion? Click here.




ElementValue
Catalog53152
NameSTARLINK-4045
Epoch Orbit1184
Epoch Day270.25001157
Epoch Year2022
RAAN58.0757
Inclination53.2164
Eccentricity0.0001517
Argument of Perigee49.3885
Mean Anonmoly247.6259
Mean Motion15.16513273
Decay Rate-0.01109012
L11 53152U 22083W 22270.25001157 -.01109012 00000+0 -60841-1 0 9990
L22 53152 53.2164 58.0757 0001517 49.3885 247.6259 15.16513273 11845

Live tracking and technical data element details for STARLINK-4045 (NORAD 53152). STARLINK-4045 can be tracked NOW for your location showing map with azimuth and elevation plus other details from your city location.

Track the satellite on the map from your city or location and see movement details for azimuth, elevation, latitude, longitude, range, height, and movement on the map or in text.







IsCatalogInMostPopularTable: catalog: 53152, numindb: 8
Update: records affected: 1



GetName: 53152 STARLINK-4045

Hit Count: updated at: Fri, 30 Sep 2022 04:29:06 GMT